軌道要素
Epoch 2017 June 16.0 TT = JDT 2457920.5
T 2017 June 13.91636 TT MPCW
q 2.8462468 (2000.0) P Q
n 0.04244083 Peri. 105.94074 -0.68296377 +0.01123045
a 8.1397954 Node 79.81817 -0.42729340 -0.81710072
e 0.6503294 Incl. 47.90651 +0.59243636 -0.57638554
P 23.22
From 157 observations 2017 Mar. 18-July 26, mean residual 0".4.
|